,,PA_Meas_PMT16A,,PR_Meas_QMR101_102,,RH_Meas_QMH101,,SR_Meas_QMS101,,TA_Meas_QMH101,,GenWind,,GenWind,
time,status,PA,status,PR,status,RH,status,SR,status,TA,status,DirAvg,status,SpdAvg,
2012-12-11, 00:00:05,VALID,918.402,VALID,0,VALID,93.8519,VALID,0,VALID,19.3728,VALID,4,VALID,0,
2012-12-11, 00:01:05,VALID,918.42,VALID,0,VALID,93.8138,VALID,0,VALID,19.3923,VALID,358,VALID,0,
2012-12-11, 00:02:05,VALID,918.502,VALID,0,VALID,93.7147,VALID,0,VALID,19.4118,VALID,12,VALID,0,
2012-12-11, 00:03:05,VALID,918.473,VALID,0,VALID,93.6994,VALID,0,VALID,19.4508,VALID,6,VALID,0,
2012-12-11, 00:04:05,VALID,918.44,VALID,0,VALID,93.646,VALID,0,VALID,19.4508,VALID,1,VALID,0,
2012-12-11, 00:05:05,VALID,918.488,VALID,0,VALID,93.6689,VALID,0,VALID,19.4703,VALID,1,VALID,0,
2012-12-11, 00:06:05,VALID,918.38,VALID,0,VALID,93.5012,VALID,0,VALID,19.4703,VALID,9,VALID,0,
2012-12-11, 00:07:05,VALID,918.449,VALID,0,VALID,93.3868,VALID,0,VALID,19.4703,VALID,9,VALID,0,
2012-12-11, 00:08:05,VALID,918.336,VALID,0,VALID,93.4021,VALID,0,VALID,19.4898,VALID,9,VALID,0,
2012-12-11, 00:09:05,VALID,918.202,VALID,0,VALID,93.3106,VALID,0,VALID,19.4703,VALID,355,VALID,0,
2012-12-11, 00:10:05,VALID,918.231,VALID,0,VALID,93.2877,VALID,0,VALID,19.4898,VALID,355,VALID,0,
2012-12-11, 00:11:05,VALID,918.162,VALID,0,VALID,93.2115,VALID,0,VALID,19.5108,VALID,355,VALID,0,
2012-12-11, 00:12:05,VALID,918.595,VALID,0,VALID,93.2649,VALID,0,VALID,19.5303,VALID,355,VALID,0,
2012-12-11, 00:13:05,VALID,918.539,VALID,0,VALID,93.2496,VALID,0,VALID,19.5303,VALID,355,VALID,0,
2012-12-11, 00:14:05,VALID,918.274,VALID,0,VALID,93.2725,VALID,0,VALID,19.5303,VALID,355,VALID,0,
2012-12-11, 00:15:05,VALID,918.663,VALID,0,VALID,93.3259,VALID,0,VALID,19.5093,VALID,355,VALID,0,
2012-12-11, 00:16:05,VALID,918.379,VALID,0,VALID,93.2191,VALID,0,VALID,19.5303,VALID,355,VALID,0,
2012-12-11, 00:17:05,VALID,918.96,VALID,0,VALID,93.1658,VALID,0,VALID,19.5303,VALID,355,VALID,0,
2012-12-11, 00:18:05,VALID,918.1,VALID,0,VALID,93.1353,VALID,0,VALID,19.5108,VALID,355,VALID,0,
2012-12-11, 00:19:05,VALID,917.955,VALID,0,VALID,93.0209,VALID,0,VALID,19.5108,VALID,355,VALID,0,
2012-12-11, 00:20:05,VALID,918.509,VALID,0,VALID,93.2496,VALID,0,VALID,19.5498,VALID,355,VALID,0,
2012-12-11, 00:21:05,VALID,918.03,VALID,0,VALID,93.4021,VALID,0,VALID,19.4913,VALID,355,VALID,0,
2012-12-11, 00:22:05,VALID,918.091,VALID,0,VALID,93.4326,VALID,0,VALID,19.5108,VALID,355,VALID,0,
2012-12-11, 00:23:05,VALID,918.2,VALID,0,VALID,93.4631,VALID,0,VALID,19.4927,VALID,355,VALID,0,
2012-12-11, 00:24:05,VALID,919.462,VALID,0,VALID,93.5317,VALID,0,VALID,19.4523,VALID,355,VALID,0,
2012-12-11, 00:25:05,VALID,919.4,VALID,0,VALID,93.6613,VALID,0,VALID,19.4732,VALID,355,VALID,0,
2012-12-11, 00:26:05,VALID,918.363,VALID,0,VALID,93.7451,VALID,0,VALID,19.4313,VALID,355,VALID,0,
2012-12-11, 00:27:05,VALID,918.767,VALID,0,VALID,93.6994,VALID,0,VALID,19.4103,VALID,355,VALID,0,
2012-12-11, 00:28:05,VALID,918.291,VALID,0,VALID,93.6918,VALID,0,VALID,19.4313,VALID,355,VALID,0,
2012-12-11, 00:29:05,VALID,918.279,VALID,0,VALID,93.7985,VALID,0,VALID,19.4508,VALID,355,VALID,0,
2012-12-11, 00:30:05,VALID,918.926,VALID,0,VALID,93.7299,VALID,0,VALID,19.4508,VALID,355,VALID,0,
2012-12-11, 00:31:05,VALID,919.008,VALID,0,VALID,93.6232,VALID,0,VALID,19.4508,VALID,355,VALID,0,
2012-12-11, 00:32:05,VALID,919.565,VALID,0,VALID,93.7299,VALID,0,VALID,19.4508,VALID,355,VALID,0,
2012-12-11, 00:33:05,VALID,918.123,VALID,0,VALID,93.7299,VALID,0,VALID,19.4508,VALID,355,VALID,0,
2012-12-11, 00:34:04,VALID,918.343,VALID,0,VALID,93.6003,VALID,0,VALID,19.4898,VALID,358,VALID,0,
2012-12-11, 00:35:04,VALID,918.668,VALID,0,VALID,93.4402,VALID,0,VALID,19.3908,VALID,356,VALID,0,
2012-12-11, 00:36:04,VALID,919.163,VALID,0,VALID,93.4097,VALID,0,VALID,19.4313,VALID,356,VALID,0,
2012-12-11, 07:11:04,VALID,917.049,VALID,0,VALID,95.5367,VALID,113.565,VALID,19.5288,VALID,35,VALID,0,
2012-12-11, 07:12:04,VALID,917.062,VALID,0,VALID,95.3613,VALID,117.003,VALID,19.5873,VALID,35,VALID,0,
2012-12-11, 07:13:04,VALID,917.113,VALID,0,VALID,95.0869,VALID,121.731,VALID,19.6068,VALID,35,VALID,0,
2012-12-11, 07:14:04,VALID,917.135,VALID,0,VALID,94.8734,VALID,126.888,VALID,19.6248,VALID,35,VALID,0,
2012-12-11, 07:15:04,VALID,917.146,VALID,0,VALID,94.7057,VALID,131.401,VALID,19.7043,VALID,35,VALID,0,
2012-12-11, 07:16:04,VALID,917.144,VALID,0,VALID,94.4389,VALID,137.202,VALID,19.7418,VALID,35,VALID,0,
2012-12-11, 07:17:04,VALID,917.136,VALID,0,VALID,94.0272,VALID,146.12,VALID,19.8198,VALID,35,VALID,0,
2012-12-11, 07:18:04,VALID,917.17,VALID,0,VALID,93.4402,VALID,154.93,VALID,19.9188,VALID,35,VALID,0,
2012-12-11, 07:19:04,VALID,917.148,VALID,0,VALID,93.1124,VALID,161.269,VALID,20.0163,VALID,35,VALID,0,
2012-12-11, 07:20:04,VALID,917.156,VALID,0,VALID,93.0209,VALID,166.319,VALID,20.1139,VALID,35,VALID,0,
2012-12-11, 07:21:04,VALID,917.184,VALID,0,VALID,92.4644,VALID,174.162,VALID,20.2114,VALID,35,VALID,0,
2012-12-11, 07:22:04,VALID,917.151,VALID,0,VALID,91.1151,VALID,181.146,VALID,20.2489,VALID,35,VALID,0,
2012-12-11, 07:23:04,VALID,917.171,VALID,0,VALID,90.1469,VALID,184.691,VALID,20.3464,VALID,35,VALID,0,
2012-12-11, 07:24:04,VALID,917.146,VALID,0,VALID,89.1711,VALID,189.849,VALID,20.3659,VALID,35,VALID,0,
2012-12-11, 07:25:04,VALID,917.159,VALID,0,VALID,89.415,VALID,193.824,VALID,20.3854,VALID,118,VALID,0,
2012-12-11, 07:26:04,VALID,917.193,VALID,0,VALID,89.8496,VALID,199.411,VALID,20.4244,VALID,119,VALID,0,
2012-12-11, 07:27:04,VALID,917.176,VALID,0,VALID,89.2854,VALID,207.039,VALID,20.4244,VALID,114,VALID,0,
2012-12-11, 07:28:04,VALID,917.17,VALID,0,VALID,89.6971,VALID,216.494,VALID,20.4244,VALID,118,VALID,0,
2012-12-11, 07:29:04,VALID,917.244,VALID,0,VALID,89.7505,VALID,228.742,VALID,20.4634,VALID,122,VALID,0,
2012-12-11, 07:30:04,VALID,917.212,VALID,0,VALID,90.246,VALID,242.387,VALID,20.5804,VALID,122,VALID,0,
2012-12-11, 07:31:04,VALID,917.298,VALID,0,VALID,88.9729,VALID,252.916,VALID,20.5804,VALID,122,VALID,0,
2012-12-11, 07:32:04,VALID,917.29,VALID,0,VALID,89.072,VALID,260.222,VALID,20.6795,VALID,154,VALID,0,
2012-12-11, 07:33:04,VALID,917.241,VALID,0,VALID,89.2321,VALID,266.024,VALID,20.7966,VALID,154,VALID,0,
2012-12-11, 07:34:04,VALID,917.299,VALID,0,VALID,89.1559,VALID,272.471,VALID,20.9527,VALID,154,VALID,0,
2012-12-11, 07:35:04,VALID,917.276,VALID,0,VALID,88.1191,VALID,276.231,VALID,21.0697,VALID,152,VALID,0,
2012-12-11, 07:36:04,VALID,917.372,VALID,0,VALID,88.2792,VALID,279.777,VALID,21.2648,VALID,153,VALID,0,
2012-12-11, 07:37:04,VALID,917.342,VALID,0,VALID,86.8231,VALID,283.752,VALID,21.3624,VALID,154,VALID,0,
2012-12-11, 07:38:04,VALID,917.347,VALID,0,VALID,86.2666,VALID,280.744,VALID,21.4404,VALID,119,VALID,0,
2012-12-11, 07:39:04,VALID,917.463,VALID,0,VALID,85.5042,VALID,287.62,VALID,21.4599,VALID,133,VALID,0,
2012-12-11, 07:40:04,VALID,917.371,VALID,0,VALID,84.6504,VALID,294.711,VALID,21.5185,VALID,133,VALID,0,
2012-12-11, 07:41:04,VALID,917.385,VALID,0,VALID,85.1231,VALID,300.943,VALID,21.6551,VALID,133,VALID,0,
2012-12-11, 07:42:04,VALID,917.498,VALID,0,VALID,84.4903,VALID,304.488,VALID,21.7705,VALID,133,VALID,0,
2012-12-11, 07:43:04,VALID,917.466,VALID,0,VALID,84.0253,VALID,304.703,VALID,21.8095,VALID,133,VALID,0,
2012-12-11, 07:44:04,VALID,917.497,VALID,0,VALID,83.3925,VALID,307.819,VALID,22.0047,VALID,133,VALID,0,
2012-12-11, 07:45:04,VALID,917.447,VALID,0,VALID,83.6517,VALID,303.951,VALID,22.1234,VALID,133,VALID,0,
2012-12-11, 07:46:04,VALID,917.666,VALID,0,VALID,82.7598,VALID,292.455,VALID,22.1413,VALID,123,VALID,0,
2012-12-11, 07:47:04,VALID,917.492,VALID,0,VALID,83.484,VALID,276.231,VALID,22.0437,VALID,105,VALID,0,
2012-12-11, 07:48:04,VALID,917.55,VALID,0,VALID,83.9491,VALID,270.967,VALID,22.1022,VALID,351,VALID,0,
2012-12-11, 07:49:04,VALID,917.586,VALID,0,VALID,83.2172,VALID,276.876,VALID,22.2779,VALID,356,VALID,0,
2012-12-11, 07:50:04,VALID,917.629,VALID,0,VALID,83.7127,VALID,270.537,VALID,22.3754,VALID,8,VALID,0,
2012-12-11, 07:51:04,VALID,917.622,VALID,0,VALID,82.836,VALID,264.305,VALID,22.3169,VALID,14,VALID,0,
2012-12-11, 07:52:04,VALID,917.611,VALID,0,VALID,82.7827,VALID,257.107,VALID,22.3152,VALID,14,VALID,0,
2012-12-11, 07:53:04,VALID,917.642,VALID,0,VALID,82.4854,VALID,257.644,VALID,22.4145,VALID,126,VALID,0,
2012-12-11, 07:54:04,VALID,917.576,VALID,0,VALID,81.6773,VALID,261.082,VALID,22.4145,VALID,189,VALID,0,
2012-12-11, 07:55:04,VALID,917.657,VALID,0,VALID,81.5782,VALID,260.545,VALID,22.2583,VALID,169,VALID,0,
2012-12-11, 07:56:04,VALID,917.6,VALID,0,VALID,82.958,VALID,260.975,VALID,22.1998,VALID,175,VALID,0,
2012-12-11, 07:57:04,VALID,917.611,VALID,0,VALID,83.9948,VALID,261.082,VALID,22.1803,VALID,175,VALID,0,
2012-12-11, 07:58:04,VALID,917.673,VALID,0,VALID,84.7571,VALID,263.446,VALID,22.3169,VALID,175,VALID,0,
2012-12-11, 07:59:04,VALID,917.613,VALID,0,VALID,82.6836,VALID,263.338,VALID,22.3737,VALID,174,VALID,0,
2012-12-11, 08:00:04,VALID,917.638,VALID,0,VALID,80.4347,VALID,268.495,VALID,22.4925,VALID,174,VALID,0,
2012-12-11, 08:01:04,VALID,917.607,VALID,0,VALID,80.7167,VALID,273.975,VALID,22.5494,VALID,174,VALID,0,
2012-12-11, 08:02:04,VALID,917.703,VALID,0,VALID,80.3127,VALID,271.289,VALID,22.6877,VALID,155,VALID,0,
2012-12-11, 08:03:04,VALID,917.669,VALID,0,VALID,80.793,VALID,266.454,VALID,22.5316,VALID,202,VALID,0,
2012-12-11, 08:04:04,VALID,917.689,VALID,0,VALID,80.9302,VALID,272.578,VALID,22.434,VALID,202,VALID,0,
2012-12-11, 08:05:04,VALID,917.661,VALID,0,VALID,81.3037,VALID,280.099,VALID,22.3542,VALID,202,VALID,0,
2012-12-11, 08:06:04,VALID,917.724,VALID,0,VALID,81.906,VALID,281.818,VALID,22.1981,VALID,202,VALID,0,
2012-12-11, 08:07:04,VALID,917.744,VALID,0,VALID,82.4549,VALID,278.81,VALID,22.3169,VALID,200,VALID,0,
2012-12-11, 08:08:04,VALID,917.744,VALID,0,VALID,80.2212,VALID,258.611,VALID,22.3737,VALID,60,VALID,0,
2012-12-11, 08:09:04,VALID,917.736,VALID,0,VALID,80.9683,VALID,212.626,VALID,22.4925,VALID,58,VALID,0,
2012-12-11, 08:10:04,VALID,917.717,VALID,0,VALID,77.2709,VALID,210.155,VALID,22.4713,VALID,43,VALID,0,
2012-12-11, 08:11:04,VALID,917.788,VALID,0,VALID,77.149,VALID,203.279,VALID,22.3737,VALID,42,VALID,0,
2012-12-11, 08:12:04,VALID,917.75,VALID,0,VALID,78.6203,VALID,192.427,VALID,22.3364,VALID,42,VALID,0,
2012-12-11, 08:13:04,VALID,917.894,VALID,0,VALID,79.5275,VALID,190.278,VALID,22.3737,VALID,42,VALID,0,
2012-12-11, 08:14:04,VALID,917.8,VALID,0,VALID,81.2351,VALID,191.353,VALID,22.3933,VALID,42,VALID,0,
2012-12-11, 08:15:04,VALID,917.82,VALID,0,VALID,81.784,VALID,193.502,VALID,22.4128,VALID,42,VALID,0,
2012-12-11, 08:16:04,VALID,917.792,VALID,0,VALID,81.1818,VALID,196.94,VALID,22.3933,VALID,42,VALID,0,
2012-12-11, 08:17:04,VALID,917.837,VALID,0,VALID,80.3432,VALID,210.477,VALID,22.3542,VALID,42,VALID,0,
2012-12-11, 08:18:04,VALID,917.838,VALID,0,VALID,81.7001,VALID,216.064,VALID,22.3542,VALID,42,VALID,0,
2012-12-11, 08:19:04,VALID,917.858,VALID,0,VALID,81.1436,VALID,208.651,VALID,22.3737,VALID,42,VALID,0,
2012-12-11, 08:20:04,VALID,917.927,VALID,0,VALID,81.0522,VALID,206.072,VALID,22.372,VALID,42,VALID,0,
2012-12-11, 08:21:04,VALID,917.924,VALID,0,VALID,80.0001,VALID,207.039,VALID,22.4128,VALID,42,VALID,0,
2012-12-11, 08:22:04,VALID,917.872,VALID,0,VALID,80.3965,VALID,207.576,VALID,22.3542,VALID,42,VALID,0,
2012-12-11, 08:23:04,VALID,917.939,VALID,0,VALID,80.6786,VALID,208.328,VALID,22.3542,VALID,42,VALID,0,
2012-12-11, 08:24:04,VALID,918.006,VALID,0,VALID,80.3661,VALID,209.833,VALID,22.3347,VALID,42,VALID,0,
2012-12-11, 08:25:04,VALID,917.95,VALID,0,VALID,78.5364,VALID,211.122,VALID,22.3542,VALID,42,VALID,0,
2012-12-11, 08:26:04,VALID,917.938,VALID,0,VALID,80.1983,VALID,212.304,VALID,22.3347,VALID,42,VALID,0,
2012-12-11, 08:27:04,VALID,917.965,VALID,0,VALID,78.8185,VALID,213.163,VALID,22.3152,VALID,42,VALID,0,
2012-12-11, 08:28:04,VALID,917.984,VALID,0,VALID,79.4131,VALID,214.238,VALID,22.2371,VALID,42,VALID,0,
2012-12-11, 08:29:04,VALID,917.988,VALID,0,VALID,81.0826,VALID,216.064,VALID,22.2957,VALID,42,VALID,0,
2012-12-11, 08:30:04,VALID,918.005,VALID,0,VALID,81.6849,VALID,219.395,VALID,22.3152,VALID,42,VALID,0,
2012-12-11, 08:31:04,VALID,918.055,VALID,0,VALID,82.0737,VALID,224.445,VALID,22.3347,VALID,42,VALID,0,
2012-12-11, 08:32:04,VALID,918.033,VALID,0,VALID,80.6329,VALID,228.635,VALID,22.3737,VALID,42,VALID,0,
2012-12-11, 08:33:04,VALID,918.03,VALID,0,VALID,80.3279,VALID,235.296,VALID,22.3347,VALID,42,VALID,0,
2012-12-11, 08:34:04,VALID,918.077,VALID,0,VALID,80.549,VALID,244.858,VALID,22.2567,VALID,42,VALID,0,
2012-12-11, 08:35:04,VALID,918.131,VALID,0,VALID,81.0293,VALID,260.115,VALID,22.1005,VALID,41,VALID,0,
2012-12-11, 08:36:04,VALID,918.115,VALID,0,VALID,81.8602,VALID,266.561,VALID,22.081,VALID,42,VALID,0,
2012-12-11, 08:37:04,VALID,918.092,VALID,0,VALID,83.141,VALID,269.14,VALID,22.0013,VALID,42,VALID,0,
2012-12-11, 08:38:04,VALID,918.09,VALID,0,VALID,82.7903,VALID,289.339,VALID,22.0615,VALID,42,VALID,0,
2012-12-11, 08:39:04,VALID,918.083,VALID,0,VALID,82.0584,VALID,301.802,VALID,22.1964,VALID,42,VALID,0,
2012-12-11, 08:40:04,VALID,918.082,VALID,0,VALID,81.8374,VALID,296.86,VALID,22.3347,VALID,42,VALID,0,
2012-12-11, 08:41:04,VALID,918.098,VALID,0,VALID,81.1513,VALID,293.852,VALID,22.5103,VALID,41,VALID,0,
2012-12-11, 08:42:04,VALID,918.11,VALID,0,VALID,80.549,VALID,281.926,VALID,22.5299,VALID,42,VALID,0,
2012-12-11, 08:43:04,VALID,918.118,VALID,0,VALID,81.0522,VALID,271.181,VALID,22.5884,VALID,42,VALID,0,
2012-12-11, 08:44:04,VALID,918.135,VALID,0,VALID,80.488,VALID,258.826,VALID,22.7055,VALID,42,VALID,0,
2012-12-11, 08:45:04,VALID,918.139,VALID,0,VALID,80.2746,VALID,258.718,VALID,22.686,VALID,42,VALID,0,
2012-12-11, 08:46:04,VALID,918.117,VALID,0,VALID,81.3571,VALID,272.256,VALID,22.647,VALID,42,VALID,0,
2012-12-11, 08:47:04,VALID,918.135,VALID,0,VALID,81.967,VALID,290.413,VALID,22.5867,VALID,42,VALID,0,
2012-12-11, 08:48:04,VALID,918.114,VALID,0,VALID,81.8831,VALID,278.273,VALID,22.5299,VALID,42,VALID,0,
2012-12-11, 08:49:04,VALID,918.133,VALID,0,VALID,81.5248,VALID,288.802,VALID,22.6665,VALID,42,VALID,0,
2012-12-11, 08:50:04,VALID,918.132,VALID,0,VALID,79.6113,VALID,275.694,VALID,22.7641,VALID,42,VALID,0,
2012-12-11, 08:51:04,VALID,918.176,VALID,0,VALID,79.0624,VALID,280.207,VALID,22.9575,VALID,42,VALID,0,
2012-12-11, 08:52:04,VALID,918.194,VALID,0,VALID,77.1261,VALID,276.339,VALID,23.1722,VALID,42,VALID,0,
2012-12-11, 08:53:04,VALID,918.191,VALID,0,VALID,75.2965,VALID,271.181,VALID,23.1739,VALID,42,VALID,0,
2012-12-11, 08:54:04,VALID,918.206,VALID,0,VALID,76.3333,VALID,265.057,VALID,23.0568,VALID,249,VALID,0,
2012-12-11, 08:55:04,VALID,918.217,VALID,0,VALID,76.4019,VALID,262.264,VALID,22.9592,VALID,243,VALID,0,
2012-12-11, 08:56:04,VALID,918.206,VALID,0,VALID,76.5467,VALID,268.818,VALID,22.961,VALID,244,VALID,0,
2012-12-11, 08:57:04,VALID,918.217,VALID,0,VALID,77.9799,VALID,270.644,VALID,23.0373,VALID,243,VALID,0,
2012-12-11, 08:58:04,VALID,918.227,VALID,0,VALID,76.4476,VALID,274.62,VALID,23.1349,VALID,244,VALID,0,
2012-12-11, 08:59:04,VALID,918.255,VALID,0,VALID,76.0741,VALID,278.81,VALID,23.1154,VALID,244,VALID,0,
2012-12-11, 09:00:04,VALID,918.281,VALID,0,VALID,76.7068,VALID,283.107,VALID,23.213,VALID,244,VALID,0,
2012-12-11, 09:01:04,VALID,918.299,VALID,0,VALID,75.0983,VALID,286.331,VALID,23.3106,VALID,244,VALID,0,
2012-12-11, 09:02:04,VALID,918.349,VALID,0,VALID,75.9216,VALID,290.413,VALID,23.2307,VALID,244,VALID,0,
2012-12-11, 09:03:04,VALID,918.379,VALID,0,VALID,74.5646,VALID,294.711,VALID,23.1154,VALID,301,VALID,0,
2012-12-11, 09:04:04,VALID,918.395,VALID,0,VALID,76.6611,VALID,296.538,VALID,23.1349,VALID,301,VALID,0,
2012-12-11, 09:05:04,VALID,918.404,VALID,0,VALID,76.6992,VALID,297.612,VALID,23.1739,VALID,301,VALID,0,
2012-12-11, 09:06:04,VALID,918.448,VALID,0,VALID,76.1656,VALID,295.893,VALID,23.1935,VALID,301,VALID,0,
2012-12-11, 09:07:04,VALID,918.463,VALID,0,VALID,75.7691,VALID,296.215,VALID,23.1935,VALID,301,VALID,0,
2012-12-11, 09:08:04,VALID,918.484,VALID,0,VALID,77.3777,VALID,300.298,VALID,23.1722,VALID,301,VALID,0,
2012-12-11, 09:09:04,VALID,918.487,VALID,0,VALID,77.4692,VALID,306.1,VALID,23.3496,VALID,301,VALID,0,
2012-12-11, 09:10:04,VALID,918.458,VALID,0,VALID,77.7741,VALID,311.794,VALID,23.5058,VALID,301,VALID,0,
2012-12-11, 09:11:04,VALID,918.502,VALID,0,VALID,74.031,VALID,317.274,VALID,23.5058,VALID,301,VALID,0,
2012-12-11, 09:12:04,VALID,918.498,VALID,0,VALID,74.1758,VALID,317.811,VALID,23.6406,VALID,301,VALID,0,
2012-12-11, 09:13:04,VALID,918.531,VALID,0,VALID,74.9763,VALID,312.976,VALID,23.74,VALID,301,VALID,0,
2012-12-11, 09:14:04,VALID,918.525,VALID,0,VALID,74.1758,VALID,309.753,VALID,23.8377,VALID,301,VALID,0,
2012-12-11, 09:15:04,VALID,918.536,VALID,0,VALID,74.092,VALID,306.315,VALID,23.9353,VALID,301,VALID,0,
2012-12-11, 09:16:04,VALID,918.525,VALID,0,VALID,74.1911,VALID,305.025,VALID,24.0524,VALID,57,VALID,0,
2012-12-11, 09:17:04,VALID,918.559,VALID,0,VALID,75.6624,VALID,306.959,VALID,24.1092,VALID,27,VALID,0,
2012-12-11, 09:18:04,VALID,918.565,VALID,0,VALID,75.8301,VALID,311.257,VALID,24.1305,VALID,15,VALID,0,
2012-12-11, 09:19:04,VALID,918.59,VALID,0,VALID,75.2279,VALID,313.621,VALID,24.1305,VALID,343,VALID,0,
2012-12-11, 09:20:04,VALID,918.596,VALID,0,VALID,75.2126,VALID,313.513,VALID,24.0524,VALID,343,VALID,0,
2012-12-11, 09:21:04,VALID,918.589,VALID,0,VALID,76.5086,VALID,312.224,VALID,24.0134,VALID,355,VALID,0,
2012-12-11, 09:22:04,VALID,918.591,VALID,0,VALID,76.2418,VALID,311.794,VALID,23.7986,VALID,22,VALID,0,
2012-12-11, 09:23:04,VALID,918.605,VALID,0,VALID,75.7996,VALID,314.05,VALID,23.6424,VALID,35,VALID,0,
2012-12-11, 09:24:04,VALID,918.583,VALID,0,VALID,77.1566,VALID,319.1,VALID,23.4845,VALID,36,VALID,0,
2012-12-11, 09:25:04,VALID,918.623,VALID,0,VALID,78.666,VALID,332.53,VALID,23.504,VALID,304,VALID,0,
2012-12-11, 09:26:04,VALID,918.616,VALID,0,VALID,77.2481,VALID,344.671,VALID,23.6424,VALID,292,VALID,0,
2012-12-11, 09:27:04,VALID,918.62,VALID,0,VALID,76.2189,VALID,368.093,VALID,23.7187,VALID,356,VALID,0,
2012-12-11, 09:28:04,VALID,918.638,VALID,0,VALID,77.6292,VALID,378.515,VALID,23.74,VALID,355,VALID,0,
2012-12-11, 09:29:04,VALID,918.61,VALID,0,VALID,75.8682,VALID,352.407,VALID,23.6602,VALID,19,VALID,0,
2012-12-11, 09:30:04,VALID,918.627,VALID,0,VALID,76.5086,VALID,338.547,VALID,23.543,VALID,26,VALID,0,
2012-12-11, 09:31:04,VALID,918.572,VALID,0,VALID,77.2862,VALID,355.415,VALID,23.3674,VALID,23,VALID,0,
2012-12-11, 09:32:04,VALID,918.598,VALID,0,VALID,79.3445,VALID,384.639,VALID,23.3301,VALID,343,VALID,0,
2012-12-11, 09:33:04,VALID,918.566,VALID,0,VALID,78.4145,VALID,416.012,VALID,23.3496,VALID,274,VALID,0,
2012-12-11, 09:34:04,VALID,918.596,VALID,0,VALID,77.4082,VALID,408.169,VALID,23.3496,VALID,297,VALID,0,
2012-12-11, 09:35:04,VALID,918.608,VALID,0,VALID,79.0167,VALID,416.334,VALID,23.4667,VALID,297,VALID,0,
2012-12-11, 09:36:04,VALID,918.581,VALID,0,VALID,78.0866,VALID,358.746,VALID,23.504,VALID,312,VALID,0,
2012-12-11, 09:37:04,VALID,918.598,VALID,0,VALID,74.5875,VALID,400.97,VALID,23.6424,VALID,257,VALID,0,
2012-12-11, 09:38:04,VALID,918.565,VALID,0,VALID,74.435,VALID,415.905,VALID,23.74,VALID,251,VALID,0,
2012-12-11, 09:39:04,VALID,918.575,VALID,0,VALID,76.0283,VALID,401.185,VALID,23.7578,VALID,294,VALID,0,
2012-12-11, 09:40:04,VALID,918.573,VALID,0,VALID,74.0996,VALID,382.276,VALID,23.8181,VALID,17,VALID,0,
2012-12-11, 09:41:04,VALID,918.594,VALID,0,VALID,74.3817,VALID,408.491,VALID,23.9139,VALID,17,VALID,0,
2012-12-11, 09:42:04,VALID,918.591,VALID,0,VALID,73.6727,VALID,396.565,VALID,24.0701,VALID,17,VALID,0,
2012-12-11, 09:43:04,VALID,918.6,VALID,0,VALID,73.9471,VALID,384.639,VALID,24.2849,VALID,17,VALID,0,
2012-12-11, 09:44:04,VALID,918.586,VALID,0,VALID,71.1189,VALID,405.161,VALID,24.4216,VALID,271,VALID,0,
2012-12-11, 09:45:04,VALID,918.569,VALID,0,VALID,71.2561,VALID,404.623,VALID,24.2654,VALID,248,VALID,0,
2012-12-11, 09:46:04,VALID,918.582,VALID,0,VALID,72.8112,VALID,388.4,VALID,24.2281,VALID,243,VALID,0,
2012-12-11, 09:47:04,VALID,918.567,VALID,0,VALID,72.2929,VALID,374.218,VALID,24.0311,VALID,267,VALID,0,
2012-12-11, 09:48:04,VALID,918.553,VALID,0,VALID,72.8875,VALID,372.713,VALID,23.7791,VALID,274,VALID,0,
2012-12-11, 09:49:04,VALID,918.573,VALID,0,VALID,74.6637,VALID,367.556,VALID,23.6992,VALID,274,VALID,0,
2012-12-11, 09:50:04,VALID,918.527,VALID,0,VALID,75.7996,VALID,374.54,VALID,23.6797,VALID,22,VALID,0,
2012-12-11, 09:51:04,VALID,918.544,VALID,0,VALID,75.5862,VALID,362.829,VALID,23.6424,VALID,67,VALID,0,
2012-12-11, 09:52:04,VALID,918.552,VALID,0,VALID,76.3028,VALID,360.465,VALID,23.6602,VALID,58,VALID,0,
2012-12-11, 09:53:04,VALID,918.542,VALID,0,VALID,76.9889,VALID,351.762,VALID,23.7773,VALID,29,VALID,0,
2012-12-11, 09:54:04,VALID,918.567,VALID,0,VALID,76.1884,VALID,344.134,VALID,23.8554,VALID,41,VALID,0,
2012-12-11, 09:55:04,VALID,918.594,VALID,0,VALID,77.3396,VALID,347.465,VALID,23.8926,VALID,42,VALID,0,
2012-12-11, 09:56:04,VALID,918.596,VALID,0,VALID,75.0678,VALID,339.407,VALID,24.0506,VALID,18,VALID,0,
2012-12-11, 09:57:04,VALID,918.626,VALID,0,VALID,73.9166,VALID,332.745,VALID,24.1696,VALID,16,VALID,0,
2012-12-11, 09:58:04,VALID,918.609,VALID,0,VALID,74.7628,VALID,329.415,VALID,24.1873,VALID,21,VALID,0,
2012-12-11, 09:59:04,VALID,918.655,VALID,0,VALID,73.6879,VALID,324.687,VALID,24.2068,VALID,21,VALID,0,
2012-12-11, 10:00:04,VALID,918.629,VALID,0,VALID,74.4274,VALID,326.621,VALID,24.1677,VALID,21,VALID,0,
2012-12-11, 10:01:04,VALID,918.642,VALID,0,VALID,76.0283,VALID,332.101,VALID,24.2672,VALID,8,VALID,0,
2012-12-11, 10:02:04,VALID,918.625,VALID,0,VALID,72.1861,VALID,335.861,VALID,24.2281,VALID,48,VALID,0,
2012-12-11, 10:03:04,VALID,918.65,VALID,0,VALID,74.9611,VALID,321.786,VALID,23.9725,VALID,20,VALID,0,
2012-12-11, 10:04:04,VALID,918.649,VALID,0,VALID,75.2584,VALID,328.662,VALID,23.8944,VALID,12,VALID,0,
2012-12-11, 10:05:04,VALID,918.652,VALID,0,VALID,74.2749,VALID,344.134,VALID,23.8554,VALID,12,VALID,0,
2012-12-11, 10:06:04,VALID,918.633,VALID,0,VALID,74.9077,VALID,343.812,VALID,23.9548,VALID,12,VALID,0,
2012-12-11, 10:07:04,VALID,918.642,VALID,0,VALID,73.1238,VALID,338.225,VALID,23.992,VALID,32,VALID,0,
2012-12-11, 10:08:04,VALID,918.63,VALID,0,VALID,75.1288,VALID,333.927,VALID,24.0701,VALID,23,VALID,0,
2012-12-11, 10:09:04,VALID,918.639,VALID,0,VALID,72.9332,VALID,339.621,VALID,24.0701,VALID,44,VALID,0,
2012-12-11, 10:10:04,VALID,918.667,VALID,0,VALID,73.4135,VALID,343.06,VALID,24.0896,VALID,44,VALID,0,
2012-12-11, 10:11:04,VALID,918.634,VALID,0,VALID,72.5902,VALID,344.671,VALID,24.1677,VALID,28,VALID,0,
2012-12-11, 10:12:04,VALID,918.65,VALID,0,VALID,72.552,VALID,342.845,VALID,24.1092,VALID,268,VALID,0,
2012-12-11, 10:13:04,VALID,918.601,VALID,0,VALID,73.3525,VALID,343.704,VALID,24.1677,VALID,268,VALID,0,
2012-12-11, 10:14:04,VALID,918.607,VALID,0,VALID,73.3678,VALID,356.06,VALID,24.2672,VALID,5,VALID,0,
2012-12-11, 10:15:04,VALID,918.642,VALID,0,VALID,72.1023,VALID,361.647,VALID,24.2068,VALID,12,VALID,0,
2012-12-11, 10:16:04,VALID,918.637,VALID,0,VALID,73.7947,VALID,362.399,VALID,24.0115,VALID,3,VALID,0,
2012-12-11, 10:17:04,VALID,918.608,VALID,0,VALID,73.2153,VALID,360.25,VALID,24.0134,VALID,26,VALID,0,
2012-12-11, 10:18:04,VALID,918.617,VALID,0,VALID,72.1785,VALID,353.804,VALID,24.0115,VALID,352,VALID,0,
2012-12-11, 10:19:04,VALID,918.598,VALID,0,VALID,73.4287,VALID,343.704,VALID,23.8358,VALID,352,VALID,0,
2012-12-11, 10:20:04,VALID,918.596,VALID,0,VALID,74.1682,VALID,347.68,VALID,23.8163,VALID,19,VALID,0,
2012-12-11, 10:21:04,VALID,918.568,VALID,0,VALID,75.9902,VALID,348.969,VALID,23.6815,VALID,25,VALID,0,
2012-12-11, 10:22:04,VALID,918.596,VALID,0,VALID,73.9548,VALID,352.3,VALID,23.7773,VALID,23,VALID,0,
2012-12-11, 10:23:04,VALID,918.592,VALID,0,VALID,74.7552,VALID,352.085,VALID,23.8944,VALID,294,VALID,0,